sat.trackr.live / text

‹ back to catalog

STARLINK-5060

NORAD 55413 · 2023-014Y

PAYLOAD ACTIVE UNKNOWN

§ Identity

Operator
Country
US
Launch date
2023-01-31
Launch site
AFWTR
Launch vehicle
Mass (kg)
RCS (m²)

Purposes: comms

External: N2YO · Heavens-Above · Gunter

§ Orbital elements

Epoch: 2026-05-25T00:59:13.327872Z

Period
96.11 min
Inclination
69.9991°
Eccentricity
0.0003569
Mean motion
14.98315223 rev/d
Perigee alt
569.6 km
Apogee alt
574.6 km
Semi-major
6,950.2 km
B*
-1.0150e-4
RAAN
251.7500°
Arg perigee
262.1124°
Mean anomaly
97.9630°
Rev number
18,300

§ Raw data

STARLINK-50601 55413U 23014Y   26145.04112648 -.00001304  00000+0 -10150-3 0  99912 55413  69.9991 251.7500 0003569 262.1124  97.9630 14.98315223183008

JSON: /api/v1/satellites/55413 · /tle

For live sub-satellite position, see the globe view (requires WebGL).

§ Visibility from observer

Set your observer location to see the next 7 days of passes ≥ 10°. The values pass through the URL so the page stays shareable.

No JS? Fill the form by hand. The geolocation button needs JavaScript.